Weather History for PANC - December, 2013

Change the Weather History Date:

Friday, December 20, 2013

  Actual Average Record
Temperature  
Mean Temperature 18 °F 19 °F  
Max Temperature 23 °F 25 °F 47 °F (1969)
Min Temperature 13 °F 13 °F -20 °F (1957)
Degree Days  
Heating Degree Days 47    
Month to date heating degree days 981  
Since 1 July heating degree days 3791  
Cooling Degree Days 0    
Month to date cooling degree days 0  
Year to date cooling degree days 21  
Moisture  
Dew Point 16 °F    
Average Humidity 83    
Maximum Humidity 91    
Minimum Humidity 74    
Precipitation  
Precipitation 0.03 in 0.04 in 0.52 in (1999)
Month to date precipitation 1.37 0.75  
Year to date precipitation 25.74 16.22  
Snow  
Snow 0.30 in 0.50 in 12.20 in (1999)
Month to date snowfall 20.5 11.1  
Since 1 July snowfall 31.7 32.5  
Snow Depth 18.00 in    
Sea Level Pressure  
Sea Level Pressure 29.69 in    
Wind  
Wind Speed 4 mph (NNE)    
Max Wind Speed 7 mph    
Max Gust Speed -    
Visibility 9 miles    
Events Snow    
T = Trace of Precipitation, MM = Missing Value Source: NWS Daily Summary

Daily Weather History Graph

Daily Weather History Graph

Search for Another Location

Airport or City:

Trip Planner

Search our weather history database for the weather conditions in past years. The results will help you decide how hot, cold, wet, or windy it might be!

Date:

Astronomy

Dec. 20, 2013 Rise Set
Actual Time 10:13 AM AKST 3:42 PM AKST
Civil Twilight 9:11 AM AKST 4:44 PM AKST
Nautical Twilight 8:11 AM AKST 5:44 PM AKST
Astronomical Twilight 7:18 AM AKST 6:37 PM AKST
Moon 8:13 PM AKST (12/20) 11:16 AM AKST (12/20)
Length of Visible Light 7h 32m
Length of Day
5h 28m
Waning Gibbous, 89% of the Moon is Illuminated
Dec 20
Waning Gibbous
Dec 25
Last Quarter
Jan 1
New
Jan 7
First Quarter
Jan 15
Full

Hourly Weather History & Observations

Time (AKST) Temp. Windchill Dew Point Humidity Pressure Visibility Wind Dir Wind Speed Gust Speed Precip Events Conditions
12:53 AM 16.0 °F 10.4 °F 10.9 °F 81% 29.67 in 10.0 mi ENE 3.5 mph - N/A   Overcast
1:53 AM 17.1 °F 7.6 °F 12.0 °F 81% 29.68 in 10.0 mi ENE 6.9 mph - N/A   Mostly Cloudy
3:53 AM 17.1 °F - 10.9 °F 77% 29.70 in 10.0 mi Calm Calm - N/A   Mostly Cloudy
4:53 AM 15.1 °F 9.4 °F 10.9 °F 84% 29.70 in 10.0 mi SE 3.5 mph - N/A   Mostly Cloudy
5:53 AM 15.1 °F - 12.0 °F 88% 29.71 in 10.0 mi Calm Calm - N/A   Mostly Cloudy
6:53 AM 14.0 °F 6.5 °F 10.0 °F 84% 29.71 in 10.0 mi ESE 4.6 mph - N/A   Mostly Cloudy
7:53 AM 17.1 °F - 12.0 °F 81% 29.70 in 10.0 mi Calm Calm - N/A   Mostly Cloudy
8:53 AM 19.0 °F - 14.0 °F 81% 29.70 in 10.0 mi Calm Calm - N/A   Mostly Cloudy
9:49 AM 19.4 °F 12.8 °F 17.6 °F 93% 29.71 in 10.0 mi Variable 4.6 mph - N/A   Overcast
9:53 AM 19.9 °F 14.9 °F 17.1 °F 89% 29.72 in 10.0 mi North 3.5 mph - N/A   Overcast
10:53 AM 19.9 °F 14.9 °F 17.1 °F 89% 29.72 in 10.0 mi NNE 3.5 mph - 0.02 in   Overcast
11:53 AM 19.9 °F 11.1 °F 15.1 °F 81% 29.73 in 10.0 mi NE 6.9 mph - N/A   Mostly Cloudy
12:53 PM 21.0 °F 13.4 °F 16.0 °F 81% 29.72 in 10.0 mi NE 5.8 mph - N/A   Overcast
1:53 PM 21.9 °F 17.2 °F 16.0 °F 78% 29.70 in 10.0 mi NNE 3.5 mph - N/A   Overcast
2:53 PM 21.9 °F 14.5 °F 15.1 °F 75% 29.68 in 10.0 mi NNE 5.8 mph - N/A   Overcast
3:53 PM 23.0 °F 18.4 °F 17.1 °F 78% 29.67 in 10.0 mi North 3.5 mph - N/A   Overcast
4:53 PM 23.0 °F 14.7 °F 17.1 °F 78% 29.67 in 10.0 mi NNW 6.9 mph - N/A   Overcast
5:53 PM 23.0 °F 14.7 °F 16.0 °F 74% 29.67 in 9.0 mi North 6.9 mph - N/A Snow Light Snow
6:53 PM 21.9 °F 11.7 °F 18.0 °F 85% 29.67 in 4.0 mi North 9.2 mph - 0.01 in Snow Light Snow
7:22 PM 23.0 °F 15.8 °F 19.4 °F 86% 29.67 in 2.0 mi North 5.8 mph - 0.01 in Snow Light Snow
7:53 PM 23.0 °F 15.8 °F 19.9 °F 88% 29.68 in 3.0 mi NNE 5.8 mph - 0.01 in Snow Light Snow
8:53 PM 23.0 °F 17.0 °F 19.9 °F 88% 29.67 in 9.0 mi NNE 4.6 mph - 0.01 in Snow Light Snow
9:53 PM 24.1 °F 18.2 °F 21.0 °F 88% 29.67 in 9.0 mi NE 4.6 mph - 0.00 in Snow Light Snow
10:25 PM 24.8 °F 19.1 °F 21.2 °F 86% 29.66 in 2.0 mi NNE 4.6 mph - 0.00 in Snow Light Snow
10:53 PM 24.1 °F 17.0 °F 21.0 °F 88% 29.67 in 2.0 mi NNE 5.8 mph - 0.01 in Snow Light Snow
10:55 PM 24.8 °F 19.1 °F 21.2 °F 86% 29.66 in 6.0 mi NNE 4.6 mph - 0.00 in Snow Light Snow
11:43 PM 24.8 °F 17.9 °F 21.2 °F 86% 29.65 in 10.0 mi NNE 5.8 mph - 0.00 in   Overcast
11:53 PM 24.1 °F 17.0 °F 21.9 °F 91% 29.66 in 10.0 mi NNE 5.8 mph - 0.00 in   Overcast